Flag for South Africa Weather past 2 weeks in Stellenbosch, South Africa

Now
57 °F

Passing clouds.


Feels Like: 56 °F
Forecast: 42 / 76 °F
Wind: 7 mph from Southwest

Location: Cape Town International Airport

Current Time: Sep 4, 2015 at 1:33:44 AM

Latest Report: Sep 4, 2015 at 1:00 AM


Visibility: N/A

Pressure: 30.33 "Hg

Humidity: 72%

Dew point: 48 °F

Location of StellenboschLocation

Historic Weather in Stellenbosch — Graph

°F

Stellenbosch temperature yesterday

Maximum temperature yesterday: 73 °F (at 2:00 PM)
Minimum temperature yesterday: 45 °F (at 7:00 AM)
Average temperature yesterday: 59 °F

Past Weeks' High & Low Weather Summary

 TemperatureHumidityPressure
High75 °F (Aug 21, 3:00 PM)100% (Aug 21, 2:00 AM)30.42 "Hg (Aug 21, 2:00 AM)
Low45 °F (Sep 3, 7:00 AM)27% (Sep 3, 2:00 PM)29.89 "Hg (Aug 23, 3:00 PM)
Average58 °F79%30.11 "Hg
* Reported Midnight between Aug 19 and Aug 20 — Midnight between Sep 3 and Sep 4, Stellenbosch, Weather by CustomWeather, © 2015

Note: Actual official high and low records may vary slightly from our data, if they occured in-between our weather recording intervals... More about our weather records

Advertising

Stellenbosch weather history for previous 24 hours

 ConditionsComfort  
Time TempWeatherWind HumidityBarometerVisibility
12:00 AM
Fri, Sep 4
57 °FClear.6 mph72%30.33 "Hg10 mi
11:00 PM
Thu, Sep 3
57 °FClear.6 mph77%30.33 "Hg10 mi
10:00 PM59 °FClear.8 mph72%30.33 "Hg10 mi
9:00 PM57 °FClear.5 mph72%30.36 "Hg10 mi
8:00 PM63 °FPassing clouds.7 mph64%30.33 "HgN/A
7:00 PM64 °FClear.8 mph52%30.33 "Hg10 mi
6:00 PM68 °FClear.9 mph49%30.33 "Hg10 mi
5:00 PM72 °FSunny.13 mph44%30.33 "Hg10 mi
4:00 PM73 °FSunny.13 mph38%30.33 "Hg10 mi
3:00 PM73 °FPassing clouds.7 mph31%30.33 "HgN/A
2:00 PM73 °FSunny.3 mph27%30.36 "Hg10 mi
1:00 PM70 °FPassing clouds.3 mph38%30.39 "HgN/A
12:00 PM66 °FPassing clouds.7 mph46%30.42 "HgN/A
11:00 AM63 °FSunny.3 mph49%30.42 "Hg10 mi
10:00 AM59 °FSunny.2 mph59%30.42 "Hg10 mi
9:00 AM54 °FSunny.8 mph72%30.42 "Hg10 mi
8:00 AM50 °FSunny.7 mph82%30.39 "Hg10 mi
7:00 AM45 °FPassing clouds.3 mph87%30.39 "HgN/A
6:00 AM46 °FClear.2 mph82%30.39 "Hg10 mi
5:00 AM46 °FPassing clouds.5 mph82%30.36 "HgN/A
4:00 AM48 °FClear.2 mph82%30.39 "Hg10 mi
3:00 AM54 °FClear.14 mph67%30.39 "Hg10 mi
2:00 AM55 °FClear.15 mph67%30.42 "Hg10 mi
1:00 AM55 °FClear.9 mph67%30.39 "Hg10 mi
Weather by CustomWeather, © 2015

See weather overviewHow to use our weather pages